N875CD KFXE-KTPA

Flight info

Callsign N875CD
Flight time 2h 3m
Altitude 8000
Route FLL2BNICE COREA RUYKI
Aircraft C172/L-SFG/C

Departure

Time 2026-04-30 20:32
Airport Fort Lauderdale Executive Airport (KFXE)

Arrival

Time 2026-04-30 22:36
Airport Tampa International Airport (KTPA)
Time Latitude Longitude Altitude Speed Heading
2026-04-30 20:16 26.19636 -80.17505 10 ft 0 kts 179°
2026-04-30 20:27 26.19634 -80.17483 10 ft 4 kts 30°
2026-04-30 20:28 26.19715 -80.17515 10 ft 9 kts 270°
2026-04-30 20:28 26.19700 -80.17705 7 ft 13 kts 263°
2026-04-30 20:29 26.19679 -80.17931 7 ft 16 kts 263°
2026-04-30 20:30 26.19701 -80.18066 7 ft 9 kts 329°
2026-04-30 20:30 26.19837 -80.17330 67 ft 68 kts 86°
2026-04-30 20:31 26.20033 -80.15660 468 ft 76 kts 70°
2026-04-30 20:32 26.21437 -80.15955 892 ft 86 kts 305°
2026-04-30 20:32 26.22273 -80.16925 1194 ft 88 kts 314°
2026-04-30 20:33 26.22754 -80.17339 1369 ft 82 kts 311°
2026-04-30 20:33 26.23506 -80.18098 1719 ft 70 kts 306°
2026-04-30 20:33 26.23766 -80.18517 1862 ft 64 kts 284°
2026-04-30 20:34 26.24154 -80.19516 2051 ft 78 kts 281°
2026-04-30 20:34 26.24585 -80.20747 2259 ft 87 kts 283°
2026-04-30 20:35 26.24800 -80.21377 2394 ft 88 kts 288°
2026-04-30 20:35 26.25023 -80.22025 2491 ft 90 kts 281°
2026-04-30 20:35 26.25362 -80.23251 2880 ft 75 kts 281°
2026-04-30 20:36 26.25504 -80.23772 3077 ft 67 kts 280°
2026-04-30 20:36 26.25639 -80.24253 3235 ft 64 kts 280°
2026-04-30 20:36 26.25894 -80.25198 3489 ft 66 kts 281°
2026-04-30 20:37 26.26025 -80.25715 3590 ft 72 kts 282°
2026-04-30 20:37 26.26184 -80.26264 3689 ft 77 kts 284°
2026-04-30 20:37 26.26354 -80.26852 3791 ft 81 kts 283°
2026-04-30 20:37 26.26529 -80.27456 3887 ft 83 kts 285°
2026-04-30 20:38 26.26708 -80.28085 3982 ft 86 kts 285°
2026-04-30 20:38 26.26887 -80.28724 4078 ft 87 kts 285°
2026-04-30 20:38 26.27070 -80.29378 4175 ft 87 kts 286°
2026-04-30 20:39 26.27450 -80.30679 4363 ft 88 kts 286°
2026-04-30 20:39 26.27636 -80.31307 4503 ft 83 kts 286°
2026-04-30 20:39 26.27810 -80.31900 4670 ft 76 kts 286°
2026-04-30 20:40 26.28083 -80.32870 5050 ft 55 kts 286°
2026-04-30 20:40 26.28146 -80.33266 5168 ft 57 kts 249°
2026-04-30 20:40 26.27731 -80.33569 5125 ft 69 kts 272°
2026-04-30 20:41 26.27973 -80.34387 5396 ft 54 kts 279°
2026-04-30 20:41 26.27979 -80.34817 5457 ft 59 kts 297°
2026-04-30 20:41 26.28177 -80.35185 5610 ft 51 kts 300°
2026-04-30 20:41 26.28362 -80.35524 5704 ft 52 kts 296°
2026-04-30 20:42 26.28556 -80.35886 5784 ft 56 kts 297°
2026-04-30 20:42 26.28755 -80.36316 5822 ft 68 kts 296°
2026-04-30 20:42 26.29233 -80.37372 5959 ft 78 kts 296°
2026-04-30 20:43 26.29479 -80.37918 6051 ft 79 kts 296°
2026-04-30 20:43 26.29654 -80.38310 6121 ft 79 kts 297°
2026-04-30 20:43 26.29892 -80.38846 6244 ft 76 kts 296°
2026-04-30 20:44 26.30345 -80.39845 6513 ft 69 kts 296°
2026-04-30 20:44 26.30555 -80.40311 6647 ft 65 kts 295°
2026-04-30 20:44 26.30946 -80.41179 6877 ft 62 kts 296°
2026-04-30 20:45 26.31329 -80.42070 7062 ft 65 kts 293°
2026-04-30 20:45 26.31522 -80.42527 7153 ft 66 kts 293°
2026-04-30 20:45 26.31695 -80.43011 7250 ft 67 kts 291°
2026-04-30 20:46 26.32184 -80.44528 7533 ft 70 kts 290°
2026-04-30 20:46 26.32347 -80.45043 7631 ft 71 kts 290°
2026-04-30 20:47 26.32679 -80.46088 7826 ft 72 kts 290°
2026-04-30 20:47 26.32844 -80.46611 7917 ft 72 kts 290°
2026-04-30 20:48 26.33180 -80.47643 8019 ft 67 kts 292°
2026-04-30 20:48 26.33374 -80.48129 7986 ft 69 kts 294°
2026-04-30 20:48 26.33559 -80.48655 7988 ft 77 kts 291°
2026-04-30 20:48 26.33759 -80.49251 7988 ft 86 kts 291°
2026-04-30 20:49 26.33974 -80.49887 7989 ft 89 kts 291°
2026-04-30 20:49 26.34196 -80.50536 7979 ft 91 kts 292°
2026-04-30 20:49 26.34385 -80.51213 7976 ft 92 kts 287°
2026-04-30 20:50 26.34717 -80.52618 7974 ft 93 kts 286°
2026-04-30 20:50 26.34878 -80.53310 7976 ft 92 kts 287°
2026-04-30 20:50 26.35038 -80.54003 7981 ft 92 kts 287°
2026-04-30 20:50 26.35199 -80.54704 7984 ft 93 kts 286°
2026-04-30 20:51 26.35359 -80.55402 7982 ft 94 kts 287°
2026-04-30 20:51 26.35693 -80.56825 7963 ft 94 kts 288°
2026-04-30 20:51 26.35889 -80.57519 7962 ft 93 kts 290°
2026-04-30 20:52 26.36100 -80.58199 7960 ft 93 kts 290°
2026-04-30 20:52 26.36312 -80.58875 7968 ft 93 kts 291°
2026-04-30 20:52 26.36730 -80.60234 7975 ft 90 kts 291°
2026-04-30 20:53 26.36930 -80.60892 7971 ft 88 kts 290°
2026-04-30 20:53 26.37122 -80.61529 7974 ft 85 kts 290°
2026-04-30 20:53 26.37306 -80.62144 7974 ft 83 kts 290°
2026-04-30 20:54 26.37659 -80.63335 7976 ft 78 kts 291°
2026-04-30 20:54 26.37827 -80.63906 7975 ft 76 kts 290°
2026-04-30 20:54 26.37989 -80.64455 7969 ft 74 kts 290°
2026-04-30 20:55 26.38310 -80.65521 7972 ft 71 kts 290°
2026-04-30 20:55 26.38467 -80.66038 7976 ft 71 kts 290°
2026-04-30 20:55 26.38625 -80.66560 7975 ft 70 kts 290°
2026-04-30 20:56 26.38941 -80.67593 7975 ft 70 kts 290°
2026-04-30 20:56 26.39097 -80.68110 7979 ft 69 kts 289°
2026-04-30 20:56 26.39412 -80.69146 7971 ft 70 kts 290°
2026-04-30 20:57 26.39571 -80.69656 7975 ft 69 kts 290°
2026-04-30 20:57 26.39729 -80.70161 7974 ft 69 kts 290°
2026-04-30 20:57 26.39890 -80.70676 7976 ft 69 kts 291°
2026-04-30 20:58 26.40224 -80.71748 7981 ft 81 kts 290°
2026-04-30 20:58 26.40426 -80.72370 7982 ft 88 kts 290°
2026-04-30 20:58 26.40641 -80.73029 7978 ft 92 kts 291°
2026-04-30 20:58 26.40866 -80.73714 7974 ft 96 kts 290°
2026-04-30 20:59 26.41328 -80.75143 7975 ft 99 kts 291°
2026-04-30 20:59 26.41558 -80.75867 7980 ft 100 kts 290°
2026-04-30 21:00 26.42019 -80.77347 7973 ft 101 kts 290°
2026-04-30 21:00 26.42489 -80.78839 7967 ft 102 kts 291°
2026-04-30 21:01 26.42963 -80.80325 7966 ft 101 kts 291°
2026-04-30 21:01 26.43208 -80.81069 7965 ft 101 kts 291°
2026-04-30 21:01 26.43702 -80.82532 7965 ft 100 kts 292°
2026-04-30 21:02 26.43944 -80.83264 7967 ft 101 kts 292°
2026-04-30 21:02 26.44184 -80.84000 7967 ft 101 kts 291°
2026-04-30 21:02 26.44428 -80.84748 7966 ft 101 kts 291°
2026-04-30 21:02 26.44669 -80.85490 7967 ft 101 kts 291°
2026-04-30 21:03 26.44913 -80.86231 7972 ft 102 kts 291°
2026-04-30 21:03 26.45161 -80.86964 7977 ft 102 kts 291°
2026-04-30 21:03 26.45414 -80.87706 7977 ft 102 kts 292°
2026-04-30 21:03 26.45667 -80.88457 7977 ft 102 kts 290°
2026-04-30 21:04 26.45915 -80.89198 7974 ft 101 kts 291°
2026-04-30 21:04 26.46161 -80.89933 7973 ft 101 kts 291°
2026-04-30 21:04 26.46663 -80.91415 7974 ft 102 kts 291°
2026-04-30 21:05 26.46915 -80.92158 7974 ft 102 kts 291°
2026-04-30 21:05 26.47171 -80.92896 7975 ft 102 kts 291°
2026-04-30 21:05 26.47429 -80.93639 7973 ft 103 kts 291°
2026-04-30 21:05 26.47687 -80.94386 7969 ft 102 kts 291°
2026-04-30 21:06 26.47939 -80.95125 7972 ft 102 kts 291°
2026-04-30 21:06 26.48197 -80.95872 7965 ft 102 kts 291°
2026-04-30 21:06 26.48453 -80.96610 7972 ft 102 kts 291°
2026-04-30 21:06 26.48707 -80.97342 7975 ft 102 kts 291°
2026-04-30 21:07 26.48970 -80.98092 7982 ft 103 kts 292°
2026-04-30 21:07 26.49233 -80.98848 7973 ft 103 kts 291°
2026-04-30 21:07 26.49494 -80.99599 7974 ft 103 kts 292°
2026-04-30 21:07 26.49748 -81.00345 7970 ft 103 kts 291°
2026-04-30 21:08 26.49982 -81.01108 7973 ft 103 kts 288°
2026-04-30 21:08 26.50170 -81.01882 7974 ft 103 kts 287°
2026-04-30 21:08 26.50355 -81.02658 7973 ft 103 kts 287°
2026-04-30 21:08 26.50538 -81.03434 7978 ft 104 kts 287°
2026-04-30 21:09 26.50728 -81.04222 7975 ft 104 kts 287°
2026-04-30 21:09 26.50916 -81.04997 7978 ft 104 kts 287°
2026-04-30 21:09 26.51107 -81.05781 7977 ft 104 kts 286°
2026-04-30 21:09 26.51302 -81.06566 7973 ft 104 kts 287°
2026-04-30 21:10 26.51497 -81.07346 7976 ft 104 kts 288°
2026-04-30 21:10 26.51761 -81.08103 7975 ft 103 kts 297°
2026-04-30 21:10 26.52170 -81.08765 7972 ft 103 kts 305°
2026-04-30 21:10 26.52597 -81.09396 7971 ft 102 kts 306°
2026-04-30 21:11 26.53031 -81.10035 7976 ft 103 kts 306°
2026-04-30 21:11 26.53468 -81.10678 7970 ft 103 kts 307°
2026-04-30 21:11 26.53942 -81.11273 7965 ft 103 kts 313°
2026-04-30 21:11 26.54476 -81.11827 7969 ft 103 kts 315°
2026-04-30 21:12 26.55013 -81.12363 7970 ft 103 kts 316°
2026-04-30 21:12 26.55555 -81.12905 7962 ft 104 kts 316°
2026-04-30 21:12 26.56094 -81.13442 7962 ft 103 kts 316°
2026-04-30 21:12 26.56632 -81.13978 7957 ft 103 kts 316°
2026-04-30 21:13 26.57144 -81.14533 7954 ft 102 kts 314°
2026-04-30 21:13 26.57651 -81.15099 7956 ft 102 kts 313°
2026-04-30 21:13 26.58155 -81.15668 7957 ft 102 kts 313°
2026-04-30 21:13 26.58657 -81.16233 7955 ft 102 kts 313°
2026-04-30 21:14 26.59161 -81.16796 7962 ft 102 kts 313°
2026-04-30 21:14 26.59671 -81.17355 7960 ft 102 kts 314°
2026-04-30 21:14 26.60192 -81.17895 7965 ft 103 kts 315°
2026-04-30 21:14 26.60721 -81.18439 7969 ft 103 kts 316°
2026-04-30 21:15 26.61256 -81.18989 7973 ft 103 kts 315°
2026-04-30 21:15 26.61786 -81.19534 7969 ft 103 kts 315°
2026-04-30 21:15 26.62312 -81.20074 7965 ft 103 kts 316°
2026-04-30 21:15 26.62843 -81.20615 7967 ft 102 kts 315°
2026-04-30 21:16 26.63361 -81.21159 7967 ft 102 kts 309°
2026-04-30 21:16 26.63811 -81.21777 7968 ft 102 kts 307°
2026-04-30 21:16 26.64266 -81.22398 7970 ft 103 kts 307°
2026-04-30 21:16 26.64725 -81.23020 7969 ft 103 kts 307°
2026-04-30 21:17 26.65175 -81.23633 7971 ft 102 kts 307°
2026-04-30 21:17 26.65632 -81.24258 7974 ft 103 kts 308°
2026-04-30 21:17 26.66080 -81.24877 7975 ft 102 kts 307°
2026-04-30 21:17 26.66532 -81.25498 7973 ft 103 kts 307°
2026-04-30 21:18 26.66985 -81.26124 7976 ft 103 kts 307°
2026-04-30 21:18 26.67437 -81.26749 7975 ft 102 kts 307°
2026-04-30 21:18 26.67887 -81.27367 7974 ft 102 kts 307°
2026-04-30 21:18 26.68335 -81.27982 7971 ft 102 kts 308°
2026-04-30 21:19 26.68786 -81.28603 7971 ft 102 kts 307°
2026-04-30 21:19 26.69234 -81.29218 7967 ft 102 kts 308°
2026-04-30 21:19 26.69689 -81.29840 7966 ft 102 kts 308°
2026-04-30 21:19 26.70139 -81.30456 7975 ft 102 kts 307°
2026-04-30 21:20 26.70589 -81.31069 7980 ft 102 kts 308°
2026-04-30 21:20 26.71043 -81.31686 7979 ft 103 kts 308°
2026-04-30 21:20 26.71502 -81.32307 7985 ft 103 kts 307°
2026-04-30 21:20 26.71961 -81.32930 7984 ft 103 kts 308°
2026-04-30 21:21 26.72414 -81.33545 7983 ft 103 kts 308°
2026-04-30 21:21 26.72869 -81.34172 7987 ft 103 kts 308°
2026-04-30 21:21 26.73771 -81.35423 7980 ft 102 kts 308°
2026-04-30 21:22 26.74218 -81.36042 7978 ft 102 kts 308°
2026-04-30 21:22 26.75575 -81.37896 7984 ft 102 kts 308°
2026-04-30 21:23 26.76037 -81.38520 7988 ft 103 kts 307°
2026-04-30 21:23 26.76495 -81.39132 7982 ft 102 kts 308°
2026-04-30 21:23 26.77416 -81.40359 7979 ft 103 kts 308°
2026-04-30 21:24 26.77877 -81.40969 7982 ft 102 kts 308°
2026-04-30 21:24 26.78336 -81.41582 7980 ft 102 kts 308°
2026-04-30 21:24 26.78792 -81.42200 7982 ft 102 kts 308°
2026-04-30 21:24 26.79245 -81.42813 7981 ft 102 kts 308°
2026-04-30 21:25 26.80155 -81.44048 7986 ft 103 kts 308°
2026-04-30 21:25 26.80615 -81.44668 7986 ft 103 kts 308°
2026-04-30 21:25 26.81076 -81.45284 7984 ft 103 kts 308°
2026-04-30 21:26 26.81999 -81.46517 7986 ft 103 kts 308°
2026-04-30 21:26 26.82464 -81.47126 7986 ft 103 kts 308°
2026-04-30 21:27 26.83398 -81.48360 7988 ft 103 kts 308°
2026-04-30 21:27 26.83859 -81.48972 7986 ft 103 kts 308°
2026-04-30 21:27 26.84326 -81.49589 7988 ft 103 kts 308°
2026-04-30 21:28 26.85254 -81.50818 7981 ft 103 kts 308°
2026-04-30 21:28 26.85711 -81.51426 7979 ft 103 kts 308°
2026-04-30 21:28 26.86629 -81.52652 7975 ft 102 kts 308°
2026-04-30 21:29 26.87093 -81.53268 7976 ft 102 kts 308°
2026-04-30 21:29 26.88478 -81.55102 7976 ft 102 kts 308°
2026-04-30 21:30 26.89412 -81.56314 7976 ft 102 kts 308°
2026-04-30 21:31 26.90811 -81.58127 7979 ft 102 kts 308°
2026-04-30 21:31 26.91738 -81.59339 7986 ft 102 kts 308°
2026-04-30 21:32 26.92665 -81.60551 7989 ft 102 kts 308°
2026-04-30 21:32 26.93131 -81.61163 7986 ft 103 kts 308°
2026-04-30 21:32 26.93594 -81.61766 7986 ft 103 kts 308°
2026-04-30 21:32 26.94065 -81.62381 7983 ft 102 kts 309°
2026-04-30 21:33 26.94529 -81.62984 7983 ft 102 kts 309°
2026-04-30 21:33 26.95461 -81.64195 7989 ft 102 kts 308°
2026-04-30 21:33 26.95927 -81.64799 7990 ft 103 kts 309°
2026-04-30 21:34 26.96390 -81.65405 7994 ft 103 kts 308°
2026-04-30 21:34 26.97326 -81.66628 7990 ft 103 kts 308°
2026-04-30 21:34 26.97790 -81.67235 7990 ft 102 kts 308°
2026-04-30 21:35 26.98259 -81.67845 7991 ft 102 kts 308°
2026-04-30 21:35 26.98728 -81.68453 7996 ft 102 kts 308°
2026-04-30 21:35 26.99195 -81.69056 7999 ft 102 kts 308°
2026-04-30 21:35 26.99655 -81.69652 7999 ft 102 kts 308°
2026-04-30 21:36 27.00126 -81.70258 8002 ft 102 kts 308°
2026-04-30 21:36 27.00593 -81.70859 7997 ft 103 kts 308°
2026-04-30 21:37 27.02017 -81.72673 8002 ft 103 kts 309°
2026-04-30 21:37 27.02496 -81.73281 7998 ft 103 kts 311°
2026-04-30 21:37 27.03170 -81.73601 7933 ft 106 kts 338°
2026-04-30 21:37 27.03573 -81.74106 8031 ft 99 kts 303°
2026-04-30 21:38 27.04032 -81.74746 7986 ft 101 kts 308°
2026-04-30 21:38 27.04457 -81.75369 8019 ft 99 kts 300°
2026-04-30 21:38 27.04810 -81.76038 8019 ft 100 kts 298°
2026-04-30 21:38 27.05158 -81.76712 8020 ft 100 kts 298°
2026-04-30 21:39 27.05511 -81.77399 8021 ft 101 kts 298°
2026-04-30 21:39 27.05862 -81.78085 8020 ft 101 kts 298°
2026-04-30 21:39 27.06222 -81.78777 8028 ft 101 kts 298°
2026-04-30 21:39 27.06575 -81.79455 8028 ft 101 kts 298°
2026-04-30 21:40 27.06942 -81.80141 8004 ft 103 kts 301°
2026-04-30 21:40 27.07427 -81.80750 7980 ft 106 kts 319°
2026-04-30 21:40 27.07990 -81.81274 7986 ft 103 kts 306°
2026-04-30 21:40 27.08407 -81.81926 7982 ft 103 kts 302°
2026-04-30 21:41 27.08779 -81.82603 7980 ft 102 kts 297°
2026-04-30 21:41 27.09107 -81.83307 7981 ft 102 kts 298°
2026-04-30 21:41 27.09476 -81.83985 7979 ft 101 kts 305°
2026-04-30 21:41 27.10007 -81.84528 7978 ft 102 kts 315°
2026-04-30 21:42 27.10542 -81.85048 7981 ft 102 kts 316°
2026-04-30 21:42 27.11068 -81.85590 7978 ft 102 kts 313°
2026-04-30 21:42 27.11584 -81.86148 7977 ft 102 kts 313°
2026-04-30 21:42 27.12094 -81.86703 7978 ft 102 kts 312°
2026-04-30 21:43 27.12609 -81.87259 7979 ft 102 kts 313°
2026-04-30 21:43 27.13147 -81.87791 7976 ft 103 kts 319°
2026-04-30 21:43 27.13742 -81.88247 7965 ft 105 kts 327°
2026-04-30 21:43 27.14354 -81.88685 7972 ft 103 kts 321°
2026-04-30 21:44 27.14945 -81.89142 7975 ft 103 kts 321°
2026-04-30 21:44 27.15528 -81.89600 7976 ft 103 kts 321°
2026-04-30 21:44 27.16118 -81.90060 7978 ft 103 kts 321°
2026-04-30 21:44 27.16710 -81.90524 7978 ft 103 kts 321°
2026-04-30 21:45 27.17294 -81.90982 7977 ft 103 kts 321°
2026-04-30 21:45 27.17879 -81.91440 7977 ft 102 kts 320°
2026-04-30 21:45 27.18467 -81.91895 7974 ft 102 kts 321°
2026-04-30 21:45 27.19059 -81.92355 7977 ft 102 kts 321°
2026-04-30 21:46 27.19639 -81.92799 7976 ft 102 kts 321°
2026-04-30 21:46 27.20228 -81.93254 7977 ft 102 kts 321°
2026-04-30 21:46 27.20813 -81.93707 7976 ft 102 kts 321°
2026-04-30 21:46 27.21408 -81.94166 7975 ft 102 kts 321°
2026-04-30 21:47 27.21987 -81.94611 7976 ft 101 kts 321°
2026-04-30 21:47 27.22581 -81.95068 7978 ft 102 kts 320°
2026-04-30 21:47 27.23163 -81.95514 7979 ft 102 kts 321°
2026-04-30 21:47 27.23751 -81.95966 7976 ft 103 kts 321°
2026-04-30 21:48 27.24338 -81.96447 7975 ft 103 kts 316°
2026-04-30 21:48 27.24864 -81.96983 7975 ft 102 kts 313°
2026-04-30 21:48 27.25379 -81.97530 7972 ft 102 kts 313°
2026-04-30 21:48 27.25892 -81.98075 7966 ft 94 kts 314°
2026-04-30 21:49 27.26344 -81.98550 7832 ft 86 kts 314°
2026-04-30 21:49 27.26766 -81.98995 7684 ft 81 kts 314°
2026-04-30 21:49 27.27174 -81.99423 7536 ft 77 kts 314°
2026-04-30 21:49 27.27560 -81.99828 7392 ft 75 kts 314°
2026-04-30 21:50 27.27937 -82.00226 7250 ft 73 kts 314°
2026-04-30 21:50 27.28300 -82.00616 7108 ft 72 kts 314°
2026-04-30 21:50 27.28661 -82.01002 6961 ft 71 kts 314°
2026-04-30 21:50 27.29018 -82.01390 6820 ft 70 kts 314°
2026-04-30 21:51 27.29363 -82.01771 6681 ft 70 kts 314°
2026-04-30 21:51 27.29748 -82.02111 6534 ft 70 kts 322°
2026-04-30 21:51 27.30154 -82.02429 6389 ft 70 kts 323°
2026-04-30 21:51 27.30557 -82.02742 6244 ft 71 kts 323°
2026-04-30 21:52 27.30966 -82.03062 6100 ft 71 kts 323°
2026-04-30 21:52 27.31412 -82.03422 5988 ft 90 kts 321°
2026-04-30 21:52 27.31942 -82.03844 5992 ft 97 kts 322°
2026-04-30 21:52 27.32513 -82.04300 5992 ft 97 kts 324°
2026-04-30 21:53 27.33077 -82.04751 5994 ft 99 kts 323°
2026-04-30 21:53 27.33639 -82.05221 5995 ft 101 kts 319°
2026-04-30 21:53 27.34182 -82.05730 5992 ft 102 kts 319°
2026-04-30 21:53 27.34721 -82.06243 5988 ft 102 kts 319°
2026-04-30 21:54 27.35272 -82.06765 5977 ft 103 kts 319°
2026-04-30 21:54 27.35822 -82.07281 5977 ft 103 kts 319°
2026-04-30 21:54 27.36378 -82.07806 5978 ft 103 kts 319°
2026-04-30 21:54 27.36927 -82.08325 5980 ft 102 kts 319°
2026-04-30 21:55 27.37482 -82.08839 5979 ft 103 kts 321°
2026-04-30 21:55 27.38050 -82.09322 5977 ft 102 kts 322°
2026-04-30 21:55 27.38626 -82.09799 5978 ft 102 kts 323°
2026-04-30 21:55 27.39211 -82.10253 5979 ft 102 kts 323°
2026-04-30 21:56 27.39792 -82.10719 5979 ft 102 kts 322°
2026-04-30 21:56 27.40371 -82.11193 5982 ft 102 kts 322°
2026-04-30 21:56 27.40948 -82.11665 5985 ft 102 kts 322°
2026-04-30 21:56 27.41519 -82.12129 5985 ft 102 kts 322°
2026-04-30 21:57 27.42097 -82.12608 5984 ft 102 kts 320°
2026-04-30 21:57 27.42647 -82.13123 5986 ft 103 kts 317°
2026-04-30 21:57 27.43170 -82.13677 5983 ft 102 kts 315°
2026-04-30 21:57 27.43688 -82.14237 5985 ft 102 kts 315°
2026-04-30 21:58 27.44200 -82.14795 5983 ft 102 kts 315°
2026-04-30 21:58 27.44713 -82.15353 5988 ft 102 kts 315°
2026-04-30 21:58 27.45222 -82.15912 5989 ft 102 kts 315°
2026-04-30 21:58 27.45728 -82.16464 5992 ft 102 kts 315°
2026-04-30 21:59 27.46245 -82.17027 5989 ft 102 kts 315°
2026-04-30 21:59 27.46749 -82.17576 5992 ft 101 kts 315°
2026-04-30 21:59 27.47265 -82.18134 5992 ft 102 kts 315°
2026-04-30 22:00 27.48292 -82.19245 5989 ft 102 kts 315°
2026-04-30 22:00 27.49326 -82.20351 5990 ft 102 kts 315°
2026-04-30 22:00 27.49840 -82.20900 5994 ft 102 kts 315°
2026-04-30 22:01 27.50358 -82.21452 5991 ft 102 kts 315°
2026-04-30 22:01 27.50872 -82.22000 5988 ft 102 kts 315°
2026-04-30 22:01 27.51387 -82.22557 5990 ft 101 kts 314°
2026-04-30 22:01 27.51891 -82.23116 5984 ft 101 kts 314°
2026-04-30 22:02 27.52385 -82.23669 5984 ft 101 kts 314°
2026-04-30 22:02 27.52885 -82.24231 5981 ft 101 kts 314°
2026-04-30 22:02 27.53378 -82.24783 5986 ft 101 kts 314°
2026-04-30 22:02 27.53876 -82.25337 5990 ft 100 kts 314°
2026-04-30 22:03 27.54374 -82.25890 5995 ft 100 kts 314°
2026-04-30 22:03 27.54880 -82.26450 5996 ft 101 kts 314°
2026-04-30 22:03 27.55390 -82.27004 5995 ft 101 kts 317°
2026-04-30 22:03 27.55899 -82.27554 5993 ft 101 kts 314°
2026-04-30 22:04 27.56404 -82.28103 5993 ft 101 kts 315°
2026-04-30 22:04 27.56913 -82.28654 5993 ft 101 kts 314°
2026-04-30 22:04 27.57921 -82.29750 5992 ft 101 kts 314°
2026-04-30 22:05 27.58430 -82.30306 5989 ft 101 kts 314°
2026-04-30 22:05 27.58934 -82.30860 5990 ft 100 kts 315°
2026-04-30 22:05 27.59437 -82.31415 5992 ft 100 kts 315°
2026-04-30 22:05 27.59931 -82.31963 5987 ft 100 kts 314°
2026-04-30 22:06 27.60434 -82.32521 5990 ft 100 kts 314°
2026-04-30 22:06 27.61437 -82.33627 5993 ft 101 kts 314°
2026-04-30 22:06 27.61943 -82.34182 5993 ft 101 kts 314°
2026-04-30 22:07 27.62448 -82.34734 5993 ft 101 kts 315°
2026-04-30 22:07 27.62956 -82.35287 5993 ft 100 kts 315°
2026-04-30 22:07 27.63457 -82.35832 5993 ft 100 kts 315°
2026-04-30 22:07 27.63964 -82.36385 5994 ft 100 kts 315°
2026-04-30 22:08 27.64463 -82.36931 5993 ft 100 kts 315°
2026-04-30 22:08 27.64965 -82.37481 5995 ft 100 kts 315°
2026-04-30 22:08 27.65466 -82.38035 5992 ft 100 kts 315°
2026-04-30 22:08 27.65966 -82.38585 5990 ft 100 kts 315°
2026-04-30 22:09 27.66467 -82.39136 5992 ft 100 kts 315°
2026-04-30 22:09 27.66969 -82.39682 5990 ft 101 kts 315°
2026-04-30 22:09 27.67472 -82.40229 5993 ft 101 kts 315°
2026-04-30 22:09 27.67977 -82.40778 5995 ft 100 kts 315°
2026-04-30 22:10 27.68484 -82.41327 5997 ft 100 kts 315°
2026-04-30 22:10 27.68995 -82.41881 5997 ft 101 kts 315°
2026-04-30 22:10 27.69614 -82.42219 5988 ft 104 kts 352°
2026-04-30 22:10 27.70337 -82.42038 5996 ft 107 kts 13°
2026-04-30 22:11 27.71752 -82.41536 5996 ft 106 kts 11°
2026-04-30 22:11 27.72474 -82.41303 5952 ft 110 kts 12°
2026-04-30 22:11 27.73236 -82.41061 5828 ft 110 kts 12°
2026-04-30 22:12 27.73932 -82.40834 5692 ft 99 kts 13°
2026-04-30 22:12 27.74572 -82.40617 5554 ft 91 kts 13°
2026-04-30 22:12 27.75154 -82.40395 5423 ft 86 kts 14°
2026-04-30 22:12 27.75709 -82.40190 5294 ft 82 kts 12°
2026-04-30 22:13 27.76253 -82.39997 5166 ft 80 kts 11°
2026-04-30 22:13 27.76779 -82.39813 5044 ft 78 kts 10°
2026-04-30 22:13 27.77296 -82.39632 4921 ft 76 kts 10°
2026-04-30 22:13 27.77806 -82.39452 4755 ft 76 kts 11°
2026-04-30 22:14 27.78310 -82.39271 4588 ft 77 kts 11°
2026-04-30 22:14 27.78822 -82.39092 4421 ft 77 kts 10°
2026-04-30 22:14 27.79336 -82.38905 4252 ft 77 kts 10°
2026-04-30 22:14 27.79844 -82.38719 4084 ft 77 kts 11°
2026-04-30 22:15 27.80356 -82.38533 3916 ft 77 kts 12°
2026-04-30 22:15 27.80872 -82.38347 3747 ft 78 kts 11°
2026-04-30 22:15 27.81391 -82.38161 3580 ft 78 kts 11°
2026-04-30 22:15 27.81908 -82.37979 3412 ft 78 kts 12°
2026-04-30 22:16 27.82429 -82.37798 3244 ft 78 kts 11°
2026-04-30 22:16 27.82954 -82.37619 3076 ft 79 kts 11°
2026-04-30 22:17 27.84540 -82.37077 2571 ft 80 kts 11°
2026-04-30 22:17 27.85074 -82.36882 2401 ft 80 kts 11°
2026-04-30 22:17 27.86141 -82.36485 2063 ft 81 kts 11°
2026-04-30 22:18 27.86732 -82.36273 2000 ft 94 kts
2026-04-30 22:18 27.88129 -82.35778 2007 ft 113 kts 13°
2026-04-30 22:19 27.89677 -82.35166 2004 ft 119 kts 13°
2026-04-30 22:19 27.90456 -82.34858 2003 ft 119 kts 13°
2026-04-30 22:19 27.92034 -82.34238 2005 ft 119 kts 13°
2026-04-30 22:20 27.92774 -82.33939 1999 ft 109 kts 13°
2026-04-30 22:20 27.94134 -82.33376 2002 ft 102 kts 12°
2026-04-30 22:20 27.94813 -82.33091 2004 ft 103 kts 12°
2026-04-30 22:21 27.95491 -82.32816 2009 ft 102 kts
2026-04-30 22:21 27.96169 -82.32552 2004 ft 104 kts 13°
2026-04-30 22:21 27.96758 -82.32048 1996 ft 111 kts 52°
2026-04-30 22:21 27.96945 -82.31185 1994 ft 114 kts 93°
2026-04-30 22:22 27.96821 -82.30300 2001 ft 114 kts 101°
2026-04-30 22:22 27.96666 -82.29421 2002 ft 114 kts 101°
2026-04-30 22:22 27.96508 -82.28543 2004 ft 114 kts 101°
2026-04-30 22:22 27.96451 -82.27639 2006 ft 114 kts 88°
2026-04-30 22:23 27.96450 -82.26735 2001 ft 115 kts 88°
2026-04-30 22:23 27.96446 -82.25849 2000 ft 111 kts 89°
2026-04-30 22:23 27.96471 -82.25010 1999 ft 103 kts 76°
2026-04-30 22:23 27.96822 -82.24374 2004 ft 91 kts 28°
2026-04-30 22:24 27.97376 -82.24213 2005 ft 77 kts 341°
2026-04-30 22:24 27.97774 -82.24530 2007 ft 68 kts 294°
2026-04-30 22:24 27.97775 -82.25037 2012 ft 69 kts 245°
2026-04-30 22:24 27.97383 -82.25454 2022 ft 85 kts 219°
2026-04-30 22:25 27.96863 -82.25842 2014 ft 93 kts 219°
2026-04-30 22:25 27.96495 -82.26439 2003 ft 94 kts 254°
2026-04-30 22:25 27.96459 -82.27174 2006 ft 94 kts 271°
2026-04-30 22:25 27.96459 -82.27915 2007 ft 95 kts 270°
2026-04-30 22:26 27.96456 -82.29420 2006 ft 96 kts 269°
2026-04-30 22:26 27.96460 -82.30182 2007 ft 96 kts 270°
2026-04-30 22:26 27.96464 -82.30942 2006 ft 96 kts 270°
2026-04-30 22:27 27.96455 -82.31686 2031 ft 94 kts 269°
2026-04-30 22:27 27.96470 -82.32430 2038 ft 94 kts 271°
2026-04-30 22:27 27.96463 -82.33869 1924 ft 89 kts 275°
2026-04-30 22:28 27.96586 -82.35222 1653 ft 84 kts 272°
2026-04-30 22:28 27.96616 -82.35873 1613 ft 85 kts 274°
2026-04-30 22:29 27.96586 -82.37895 1617 ft 90 kts 270°
2026-04-30 22:29 27.96636 -82.38609 1634 ft 85 kts 272°
2026-04-30 22:30 27.96753 -82.41333 1671 ft 92 kts 273°
2026-04-30 22:31 27.96808 -82.43353 1415 ft 83 kts 275°
2026-04-30 22:32 27.96862 -82.45054 1133 ft 69 kts 272°
2026-04-30 22:32 27.96902 -82.46139 981 ft 71 kts 272°
2026-04-30 22:33 27.96921 -82.47714 677 ft 59 kts 272°
2026-04-30 22:33 27.96957 -82.48662 538 ft 64 kts 273°
2026-04-30 22:34 27.96986 -82.50126 317 ft 64 kts 271°
2026-04-30 22:35 27.97016 -82.51086 121 ft 61 kts 269°
2026-04-30 22:36 27.97053 -82.52555 20 ft 43 kts 266°
2026-04-30 22:36 27.97115 -82.52748 19 ft 14 kts 19°
2026-04-30 22:37 27.97494 -82.52696 20 ft 24 kts 353°
2026-04-30 22:37 27.97629 -82.52628 21 ft 21 kts 92°
2026-04-30 22:37 27.97638 -82.52580 22 ft 0 kts 267°